Location: Slemon Park
(46.4340°N, 63.8219°W)
Time: 20:47:53
(UTC-03:00)

Daily predictions for brighter satellites

Satellite Brightness Start Highest point End
(mag) Time Altitude Azimuth Time Altitude Azimuth Time Altitude Azimuth
Cosmos 2333 Rocket 4.4 21:44:58 10° N 21:48:20 15° NE 21:51:40 10° ENE
CENTAUR R/B 4.5 21:43:00 10° W 21:48:56 37° NNW 21:55:34 10° NNE
MetOp-B 4.3 21:47:22 10° SSE 21:52:40 68° ENE 21:58:00 10° N
Meteor 1-21 Rocket 4.2 21:47:51 10° S 21:53:22 73° E 21:58:54 10° NNE
CZ-4B R/B 4.2 21:48:39 10° NNE 21:53:34 38° E 21:58:26 10° SSE
Cosmos 1674 3.2 21:53:00 10° SSE 21:56:37 42° E 22:00:17 10° NNE
COSMOS 2428 3.8 21:55:38 10° NNW 22:00:49 34° NE 22:05:57 10° ESE
Cosmos 1300 4.2 21:57:54 10° NNE 22:01:01 23° ENE 22:04:07 10° SE
USA 229 DEB 3.9 21:54:33 10° SSW 22:01:12 52° ESE 22:07:57 10° NE
USA 229 3.9 21:54:40 10° SSW 22:01:18 52° ESE 22:08:02 10° NE
Cosmos 1743 Rocket 4.0 21:57:28 10° SSW 22:01:55 69° W 22:06:24 10° N
deb Chang Zheng 4 4.1 21:58:25 10° N 22:02:43 64° WNW 22:07:00 10° SSW
SL-08 RB Rocket 4.4 21:58:43 10° SE 22:02:51 38° ENE 22:07:00 10° N
Cosmos 773 Rocket 4.0 21:57:41 10° NNW 22:02:53 85° ENE 22:08:07 10° SSE
PSLV R/B 3.3 22:00:11 10° S 22:03:16 76° WSW 22:06:21 10° NNW
Cosmos 2058 4.1 22:03:46 10° SE 22:07:09 25° E 22:10:33 10° NNE
Cosmos 1500 Rocket 3.7 22:04:41 10° S 22:09:03 83° W 22:13:29 10° N
Cosmos 304 Rocket 3.9 22:07:14 10° NNW 22:12:04 65° ENE 22:16:36 11° SSE
ATLAS 5 CENTAUR R/B 3.6 22:12:16 10° WSW 22:16:57 40° NW 22:22:02 10° NNE
Cosmos 968 Rocket 4.0 22:16:05 10° SSW 22:21:13 64° WNW 22:26:27 10° NNE
Cosmos 2315 Rocket 4.1 22:17:01 10° N 22:23:16 70° E 22:29:17 11° SSE
Cosmos 2219 Rocket 3.5 22:21:06 10° N 22:25:56 29° NE 22:30:45 10° ESE
SeaSat 1 4.3 22:23:05 10° E 22:26:43 21° NE 22:30:22 10° N
AVUM R/B 2.6 22:27:06 10° SSW 22:29:20 48° ESE 22:31:48 10° NE
USA 245 2.4 22:27:20 13° S 22:29:46 71° WSW 22:32:12 10° NNW
DELTA 2 R/B (1) 4.2 22:25:19 10° WSW 22:30:25 38° S 22:34:48 13° SE
ATLAS CENTAUR R/B 3.9 22:27:58 10° WNW 22:30:38 16° WSW 22:33:09 10° SW
Meteor 1-27 4.4 22:27:10 10° N 22:32:50 59° ENE 22:37:34 14° SSE
Terra 2.5 22:29:14 14° SE 22:33:00 40° ENE 22:37:27 10° N
Envisat 4.4 22:29:56 10° SSW 22:34:32 34° W 22:39:11 10° NNW
CZ-4 R/B 4.0 22:30:18 10° NNE 22:35:16 64° ESE 22:40:06 10° S
Cosmos 2266 Rocket 4.2 22:29:16 10° SSW 22:35:36 77° W 22:41:52 10° N
YAOGAN 6 3.4 22:34:22 10° S 22:37:56 48° W 22:41:28 10° NNW
Cosmos 2112 Rocket 4.0 22:32:47 10° NNW 22:38:02 90° ENE 22:42:26 15° SSE
ARGOS 3.2 22:33:04 11° SSE 22:38:16 84° WSW 22:43:42 10° NNW
SL-14 R/B 3.9 22:38:13 17° SSE 22:40:51 38° E 22:44:35 10° NNE
Cosmos 2219 3.5 22:36:12 10° S 22:41:41 48° ESE 22:47:11 10° NE
BREEZE-M DEB (TANK) 2.3 22:41:51 10° WNW 22:43:50 52° NNE 22:46:28 10° E
ATLAS 2AS CENTAUR R/B 4.5 22:42:13 12° ESE 22:44:43 14° E 22:48:24 10° ENE
Cosmos 405 4.4 22:42:44 10° NNW 22:46:06 35° W 22:49:26 10° SSW
CARTOSAT-1 3.9 22:43:13 17° SE 22:46:18 53° ENE 22:50:32 10° N
Cosmos 2322 4.0 22:41:13 10° NNW 22:46:53 64° WSW 22:51:39 15° S
Cosmos 1271 Rocket 3.5 22:45:30 10° N 22:49:04 37° ENE 22:51:14 20° SE
Cosmos 2237 Rocket 3.5 22:46:19 10° N 22:51:20 31° NE 22:56:02 11° ESE
Cosmos 1633 Rocket 3.4 22:49:19 18° SSE 22:52:18 47° E 22:56:31 10° NNE
Sich 1 3.3 22:51:05 18° SSE 22:54:14 52° E 22:58:32 10° NNE
Cosmos 2322 Rocket 4.2 22:50:18 10° NW 22:54:19 20° W 22:58:19 10° SW
H-2A R/B 2.2 22:51:09 17° SSE 22:55:14 74° ENE 23:00:40 10° N
Nadezhda 1 Rocket 4.4 22:53:03 10° N 22:58:54 46° ENE 23:03:02 19° SE
SL-16 R/B 4.3 22:58:57 10° WNW 23:02:48 19° W 23:06:38 10° SW
Cosmos 1805 Rocket 3.7 23:00:34 11° SSW 23:04:47 79° W 23:09:16 10° N
Cosmos 1726 2.1 23:01:27 10° N 23:05:14 86° W 23:07:30 23° S
Meteor 1-11 4.2 22:59:55 11° S 23:05:27 82° E 23:11:13 10° NNE
Cosmos 1437 4.1 23:03:09 10° SW 23:06:15 38° WNW 23:09:23 10° N
Cosmos 2360 Rocket 3.0 23:01:02 10° NW 23:06:21 43° WSW 23:10:48 14° S
ATLAS 3B R/B 4.1 22:59:58 10° NNW 23:06:27 34° NNE 23:12:33 10° E
Cosmos 2151 4.1 23:03:09 10° SSW 23:07:09 43° WNW 23:11:11 10° N
Iridium 2 4.0 23:07:26 26° SSE 23:09:18 49° E 23:13:02 10° NNE
NOSS 3-1 (C) 3.6 23:04:05 10° SSW 23:09:45 51° ESE 23:16:02 10° NE
Cosmos 1745 Rocket 4.2 23:07:36 19° SSE 23:12:05 57° E 23:18:09 10° NNE
SAR-Lupe-2 3.5 23:13:58 28° SSE 23:15:46 87° WSW 23:19:22 10° NNW
SL-08 R/B 4.5 23:11:57 17° S 23:16:46 72° E 23:23:02 10° NNE
Cosmos 1707 Rocket 4.3 23:15:58 10° NNW 23:20:09 48° W 23:23:16 17° SSW
DMSP B5D2-2 4.0 23:19:43 10° NNE 23:24:59 81° ESE 23:28:51 18° S
Cosmos 1666 Rocket 3.9 23:23:05 15° SSW 23:26:39 63° W 23:31:03 10° N
Cosmos 2150 Rocket 4.0 23:24:58 17° S 23:29:13 74° ESE 23:34:42 10° NNE
Lacrosse 4 Rocket 3.7 23:26:20 10° N 23:29:30 19° NE 23:32:42 10° E
Cosmos 2227 Rocket 3.0 23:31:10 25° SE 23:33:22 34° ESE 23:38:24 10° NE
Cosmos 2333 Rocket 2.4 23:28:01 10° NNW 23:33:46 66° ENE 23:37:13 25° SE
Cosmos 1898 Rocket 3.4 23:29:54 18° SSW 23:33:46 78° ESE 23:39:00 10° NNE
Cosmos 1300 4.4 23:33:27 10° NNW 23:36:46 28° W 23:39:16 14° SW
Cosmos 1470 Rocket 3.5 23:37:45 30° S 23:39:48 74° E 23:44:08 10° NNE
Meteor 2-10 4.3 23:35:20 10° NNW 23:41:00 75° W 23:44:28 25° S
Cosmos 1933 Rocket 3.5 23:39:17 30° S 23:41:27 75° E 23:45:55 10° NNE
SL-16 R/B 3.4 23:36:32 10° NNW 23:41:42 34° NE 23:45:47 15° ESE
Cosmos 1869 3.4 23:38:01 10° N 23:42:04 63° E 23:43:32 36° SSE
Cosmos 858 Rocket 4.4 23:39:40 19° SSW 23:43:28 86° ESE 23:48:42 10° NNE
H-2A R/B 4.3 23:40:55 10° NE 23:43:41 17° E 23:44:14 17° ESE
CZ-4B R/B 3.7 23:43:46 14° E 23:45:01 17° ENE 23:47:18 10° NNE
COSMOS 2428 3.4 23:39:50 10° NW 23:45:11 43° WSW 23:48:24 22° SSW
Cosmos 1626 2.2 23:44:31 40° SSE 23:45:38 62° E 23:49:22 10° NNE
Cosmos 1386 Rocket 4.4 23:42:04 25° S 23:45:46 75° E 23:51:47 10° NNE
Meteor 1-4 Rocket 3.6 23:43:20 10° NNW 23:46:55 40° W 23:48:33 25° SSW
COSMOS 2455 3.7 23:45:09 10° NNW 23:50:55 44° NE 23:55:21 17° ESE
Cosmos 220 Rocket 3.9 23:52:19 31° SSW 23:54:21 79° ESE 23:58:48 10° NNE
